Regional Weather Roundup
Issued by NWS

Home | Current Version | Previous Version | Graphics & Text | Print | Product List | Glossary On
Versions: 1 2 3 4 5 6 7 8 9 10 11 12 13 14 15 16 17 18 19 20 21 22 23 24 25 26 27 28 29 30 31 32 33 34 35 36 37 38 39 40 41 42 43 44 45 46 47 48 49 50
000
ASUS43 KOAX 281502
RWRNE

WEATHER ROUNDUP FOR NEBRASKA
NATIONAL WEATHER SERVICE OMAHA NE
1000 AM CDT SUN MAY 28 2017

NOTES: SATELLITE DATA IS BEING USED TO AUGMENT CLOUD COVER ABOVE
       12000 FEET.
       "FAIR" INDICATES FEW OR NO CLOUDS BELOW 12,000 FEET WITH NO
       SIGNIFICANT WEATHER AND/OR OBSTRUCTIONS TO VISIBILITY.

  * THESE STATIONS DO NOT REPORT WEATHER SUCH AS RAIN...SNOW OR FOG.

NEZ001>004-019>022-054>056-281600-
NEBRASKA PANHANDLE

CITY           SKY/WX    TMP DP  RH WIND       PRES   REMARKS
SCOTTSBLUFF    SUNNY     58  42  55 NW12      30.19R
ALLIANCE       SUNNY     64  43  46 NW17      30.13S
CHADRON        SUNNY     61  47  59 NW13      30.13R
GORDON         PTSUNNY   61  43  51 NW14      30.11R
KIMBALL        SUNNY     62  37  40 NW13      30.23S
SIDNEY         SUNNY     62  44  51 NW16      30.20R
$$

NEZ057>060-069>072-079>082-281600-
SOUTHWEST NEBRASKA

CITY           SKY/WX    TMP DP  RH WIND       PRES   REMARKS
NORTH PLATTE   SUNNY     63  49  60 W12       30.08F
IMPERIAL       SUNNY     65  43  44 NW13      30.14S
LEXINGTON      SUNNY     64  51  62 W12       30.06S
MCCOOK         SUNNY     65  49  56 W8        30.10R
OGALLALA       SUNNY     67  44  44 NW16      30.13S
$$

NEZ005>010-023>029-035>040-094-281600-
NORTH CENTRAL NEBRASKA

CITY           SKY/WX    TMP DP  RH WIND       PRES   REMARKS
VALENTINE      PTSUNNY   66  42  41 NW17      30.03R
AINSWORTH      SUNNY     65  46  50 NW21      30.01S
BROKEN BOW     SUNNY     68  47  46 NW15      30.03R
O`NEILL        SUNNY     67  47  49 NW17      29.97R
ORD            SUNNY     67  48  50 NW8       29.99R
THEDFORD       SUNNY     69  46  44 NW16      30.06R
$$

NEZ041-046>049-061>064-073>077-083>087-281600-
SOUTH CENTRAL NEBRASKA

CITY           SKY/WX    TMP DP  RH WIND       PRES   REMARKS
GRAND ISLAND   SUNNY     69  49  48 NW13      30.00S
AURORA         SUNNY     69  46  43 NW12      29.99S
HASTINGS       SUNNY     68  47  46 NW12      30.02R
HEBRON         SUNNY     70  51  50 NW8       30.00R
HOLDREGE       SUNNY     67  46  48 NW14      30.05R
KEARNEY *      SUNNY     68  43  40 NW14      30.04R
YORK           SUNNY     70  46  43 NW13      29.98S
$$

NEZ011>018-030>034-042>045-281600-
NORTHEAST NEBRASKA

CITY           SKY/WX    TMP DP  RH WIND       PRES   REMARKS
NORFOLK        SUNNY     69  49  48 W12       29.92S
ALBION         SUNNY     70  48  45 NW13      29.97R
BLAIR          SUNNY     69  50  50 NW7       29.93R
FREMONT        SUNNY     70  50  49 W12       29.94R
TEKAMAH        SUNNY     72  47  40 NW15      29.91R
WAYNE          SUNNY     70  49  47 NW13      29.91S
$$

NEZ050>053-065>068-078-088>093-281600-
SOUTHEAST NEBRASKA

CITY           SKY/WX    TMP DP  RH WIND       PRES   REMARKS
LINCOLN        SUNNY     71  49  45 NW8       29.96R
OMAHA EPPLEY   SUNNY     69  50  50 NW8       29.92R
BEATRICE       SUNNY     68  53  57 NW6       29.97S
FALLS CITY     SUNNY     67  55  65 NW10      29.93S
NEBRASKA CITY  SUNNY     68  49  51 NW9       29.94S
PLATTSMOUTH    SUNNY     68  53  59 NW9       29.94R
$$

NEZ044-045-051>053-067-281600-
OMAHA AREA

CITY           SKY/WX    TMP DP  RH WIND       PRES   REMARKS
OMAHA EPPLEY   SUNNY     69  50  50 NW8       29.92R
BLAIR          SUNNY     69  50  50 NW7       29.93R
FREMONT        SUNNY     70  50  49 W12       29.94R
MILLARD        SUNNY     69  53  57 NW9       29.93S
OFFUTT AFB     SUNNY     68  52  56 W8        29.92R
PLATTSMOUTH    SUNNY     68  53  59 NW9       29.94R
WAHOO          FAIR      71  45  38 NW10      29.94R
$$




USA.gov is the U.S. government's official web portal to all federal, state and local government web resources and services.